Location: Big Meadow
(36.7100°N, 118.8650°W)
Time: 08:19:25
(UTC-07:00)

Daily predictions for brighter satellites

Satellite Brightness Start Highest point End
(mag) Time Altitude Azimuth Time Altitude Azimuth Time Altitude Azimuth
Cosmos 1818 3.7 19:32:34 10° NNW 19:37:56 57° ENE 19:43:14 10° SE
FengYun 1-2 T 4.5 19:37:26 10° SE 19:42:47 50° ENE 19:48:13 10° N
BREEZE-M DEB (TANK) 3.1 19:42:55 10° WSW 19:45:25 62° NNW 19:50:51 10° NE
ALOS 2.3 19:41:21 10° SSE 19:45:55 59° ENE 19:50:31 10° N
Cosmos 1271 Rocket 3.9 19:43:18 10° SE 19:46:29 23° E 19:49:43 10° NE
GP-B 4.2 19:46:42 10° SE 19:50:15 24° E 19:53:49 10° NNE
Meteor 1-4 Rocket 2.4 19:47:12 10° S 19:50:36 60° E 19:54:03 10° NNE
Meteor 1-24 Rocket 4.3 19:45:45 10° NNW 19:51:16 65° W 19:56:59 10° S
Cosmos 1674 3.8 19:48:34 10° NNE 19:51:46 25° ENE 19:54:58 10° SE
PSLV R/B 4.5 19:51:11 10° SSW 19:53:43 22° SSE 19:55:48 13° E
Spot 2 Rocket 3.8 19:51:14 10° SE 19:56:05 45° ENE 20:00:57 10° N
Cosmos 1758 3.2 19:53:21 10° S 19:57:18 75° E 20:01:18 10° N
Resurs 01 Rocket 1.8 19:57:26 10° SSE 20:01:43 52° ENE 20:06:02 10° N
Cosmos 1953 2.3 19:58:45 10° S 20:02:48 79° E 20:06:52 10° N
GPS 2-05 Rocket1 2.9 19:59:28 10° W 20:02:59 74° S 20:05:45 16° E
Cosmos 2098 Rocket 4.4 19:57:32 10° S 20:04:48 74° E 20:12:22 10° N
Cosmos 1544 3.6 20:02:13 10° SSW 20:05:50 64° W 20:09:29 10° N
OAO 2 Rocket 4.0 20:06:57 10° SW 20:11:42 39° SSE 20:15:07 18° E
CZ-4C R/B 3.4 20:09:04 10° SE 20:17:57 - NE 20:12:09 16° ESE
Cosmos 1867 4.4 20:07:12 10° SW 20:12:31 54° WNW 20:17:53 10° NNE
CZ-4B DEB 4.4 20:14:22 17° ENE 20:14:22 17° ENE 20:16:21 10° NNE
Envisat 4.1 20:11:41 16° ESE 20:14:28 25° ENE 20:18:34 10° NNE
Cosmos 1939 Rocket 4.4 20:17:33 18° E 20:18:16 19° ENE 20:21:12 10° NNE
SeaSat 1 2.4 20:13:22 10° SSE 20:18:16 77° ENE 20:23:13 10° NNW
Cosmos 2369 Rocket 3.3 20:19:33 10° SSE 20:23:53 20° E 20:27:36 10° NE
CZ-2D R/B 3.2 20:20:09 10° SSE 20:23:59 70° ENE 20:27:52 10° N
Cosmos 2100 Rocket 4.0 20:18:10 10° S 20:24:21 63° E 20:30:39 10° NNE
Lacrosse 5 rocket 1.6 20:20:38 10° NNW 20:24:22 42° NE 20:25:53 28° E
ISS -2.0 20:21:48 10° W 20:24:43 30° NNW 20:27:39 10° NNE
FENGYUN 3A 4.3 20:21:22 10° S 20:26:40 58° W 20:31:59 10° NNW
Helios 1B rocket 2.5 20:23:35 10° NNE 20:27:37 50° E 20:31:35 10° S
Geosat 4.0 20:24:11 10° NNE 20:29:09 60° ESE 20:34:05 10° SSW
Cosmos 1048 Rocket 4.1 20:25:47 10° NNW 20:30:54 75° WSW 20:36:00 10° S
H-2A R/B 4.0 20:26:15 10° WSW 20:31:36 56° SSE 20:52:50 20° E
H-2A R/B 4.0 20:26:15 10° WSW 20:31:36 56° SSE 20:52:53 20° E
H-2A R/B 4.0 20:26:16 10° WSW 20:31:36 56° SSE 20:52:51 20° E
H-2A R/B 4.0 20:26:15 10° WSW 20:31:36 56° SSE 20:52:54 20° E
H-2A R/B 4.0 20:26:15 10° WSW 20:31:36 56° SSE 20:52:52 20° E
H-2A R/B 4.0 20:26:15 10° WSW 20:31:36 56° SSE 20:52:51 20° E
H-2A R/B 4.0 20:26:16 10° WSW 20:31:36 56° SSE 20:52:54 20° E
H-2A R/B 4.0 20:26:15 10° WSW 20:31:36 56° SSE 20:52:48 20° E
H-2A R/B 4.0 20:26:16 10° WSW 20:31:36 56° SSE 20:52:52 20° E
Cosmos 1408 Rocket 3.5 20:27:29 10° N 20:31:59 87° E 20:36:26 10° S
MINOTAUR R/B 4.3 20:31:09 10° SSW 20:34:01 88° W 20:36:55 10° NNE
Resurs 1-3 3.7 20:30:05 10° S 20:34:27 77° WSW 20:38:51 10° NNW
TIMED 4.4 20:32:31 10° SSW 20:36:53 77° ESE 20:41:15 10° NNE
Cosmos 1833 Rocket 2.8 20:32:02 10° NNW 20:37:40 80° WSW 20:43:06 11° SSE
Cosmos 1733 3.3 20:34:49 10° S 20:38:40 81° W 20:42:34 10° N
CZ-3 Stage 3 3.8 19:54:59 10° W 20:41:43 68° S 20:46:33 27° ESE
H-II Stage 2 3.1 20:43:26 10° SW 20:44:24 17° SSW 20:44:24 17° SSW
Cosmos 1842 Rocket 3.6 20:42:30 19° SSE 20:45:29 52° E 20:49:46 10° NNE
ATLAS 5 CENTAUR R/B 3.2 20:41:14 10° WSW 20:45:35 39° NW 20:50:20 10° NNE
Cosmos 1470 3.3 20:42:23 10° SSW 20:46:19 60° W 20:50:15 10° N
Cosmos 1802 Rocket 3.8 20:43:27 10° S 20:49:33 78° E 20:55:44 10° N
Meteor 1-29 2.8 20:46:13 10° NNE 20:49:42 79° ESE 20:51:34 26° S
Helios 1A 2.9 20:49:21 26° SSE 20:51:37 89° SW 20:55:50 10° NNW
SAR-Lupe-4 4.2 21:00:29 33° SSW 21:01:49 55° W 21:05:21 10° NNW
Cosmos 1459 Rocket 4.4 21:00:49 10° SSW 21:07:00 63° W 21:13:08 10° N
Cosmos 1340 Rocket 3.6 21:03:23 10° NNW 21:07:16 50° W 21:09:07 27° SSW
Aurora 2 Rocket 4.5 21:02:07 10° WSW 21:08:12 27° SSW 21:09:22 25° S
SJ-11-01 4.1 21:07:14 55° SSE 21:08:15 79° ENE 21:12:59 10° N
Cosmos 2061 Rocket 4.4 21:02:33 10° SSW 21:08:54 68° W 21:15:20 10° N
SPOT 5 4.5 21:10:41 23° NE 21:10:41 23° NE 21:13:49 10° NNE
Cosmos 1356 Rocket 3.4 21:06:19 10° N 21:09:54 64° NNE 21:09:54 64° NNE
Cosmos 2251 Rocket 3.4 21:10:52 10° NNW 21:16:14 82° ENE 21:17:07 63° SSE
Cosmos 2233 Rocket 4.5 21:18:00 40° ENE 21:18:00 40° ENE 21:22:45 10° NNE
Cosmos 2082 Rocket 3.9 21:15:19 10° NW 21:20:08 29° WSW 21:24:55 10° SSW
Cosmos 1864 Rocket 4.4 21:18:56 23° S 21:23:07 82° E 21:29:27 10° N
USA 215 3.1 21:19:30 10° NE 21:26:03 75° SE 21:32:34 10° SW
SL-14 R/B 4.1 21:23:16 10° NNW 21:26:15 48° NW 21:26:15 48° NW
Meteor 1-11 4.3 21:32:57 10° NNW 21:38:32 74° W 21:39:11 66° SW
Cosmos 494 Rocket 4.3 21:34:45 10° NNW 21:39:45 57° WSW 21:40:06 56° WSW
Envisat 4.4 21:51:53 28° SW 21:53:17 33° W 21:57:52 10° NNW
CZ-4C R/B 3.2 21:54:50 10° SW 22:02:38 30° NNE 22:05:42 10° NNE
ERS-1 Rocket 3.9 22:03:12 45° WNW 22:03:12 45° WNW 22:07:09 10° NNW
Lacrosse 5 rocket 4.1 22:00:56 10° W 22:01:37 12° W 22:01:37 12° W
Cosmos 2369 Rocket 3.0 22:01:45 10° SW 22:07:10 48° WNW 22:12:36 10° N
H-2A R/B 4.0 22:21:02 23° N 22:21:02 23° N 22:23:00 10° N
